Overview Statistics Trail Chart Weather Telemetry Raw packets
 

This is the latest recevied weather packets stored in our database for station/object M0HPP-13. If no packets are shown the sender has not sent any weather packets the latest 10 day(s).

<< 29 30 31 32 33 34 35 >>
Time Temp. Humidity Pressure Rain* Wind** Luminosity Snow
1788182286 16.11° C 78% 1006.7 hPa 0 mm - 201 W/m² -
1788181686 16.11° C 79% 1006.7 hPa 0 mm - 167 W/m² -
1788181086 16.11° C 79% 1006.6 hPa 0 mm - 162 W/m² -
1788180486 16.11° C 81% 1006.5 hPa 0 mm - 175 W/m² -
1788179886 16.11° C 83% 1006.3 hPa 0 mm - 140 W/m² -
1788179286 16.11° C 82% 1006.2 hPa 0 mm - 124 W/m² -
1788178686 16.67° C 81% 1006.2 hPa 0 mm - 162 W/m² -
1788178086 17.22° C 79% 1005.9 hPa 0 mm - 246 W/m² -
1788177486 16.67° C 79% 1005.9 hPa 0 mm - 303 W/m² -
1788176886 17.78° C 77% 1005.9 hPa 0 mm - 281 W/m² -
1788176286 18.33° C 76% 1005.9 hPa 0 mm - 340 W/m² -
1788175686 18.33° C 77% 1005.8 hPa 0 mm - 509 W/m² -
1788175086 18.33° C 79% 1005.6 hPa 0 mm - 381 W/m² -
1788174486 17.78° C 79% 1005.4 hPa 0 mm - 328 W/m² -
1788173886 17.78° C 80% 1005.4 hPa 0 mm - 311 W/m² -
1788173286 17.78° C 80% 1005.4 hPa 0 mm - 242 W/m² -
1788172686 17.78° C 81% 1005.4 hPa 0 mm - 260 W/m² -
1788172086 17.78° C 80% 1005.3 hPa 0 mm - 217 W/m² -
1788171486 17.78° C 81% 1005.1 hPa 0 mm - 354 W/m² -
1788170886 17.78° C 80% 1005.1 hPa 0 mm - 291 W/m² -
1788170286 16.11° C 88% 1005 hPa 0 mm - 369 W/m² -
1788169686 16.11° C 88% 1004.9 hPa 0 mm - 133 W/m² -
1788169086 16.11° C 89% 1004.9 hPa 0 mm - 160 W/m² -
1788168486 15.56° C 89% 1004.7 hPa 0 mm - 137 W/m² -
1788167886 15.56° C 89% 1004.8 hPa 0 mm - 129 W/m² -

* Rain latest hour (hover to see other rain measurements)
** Current wind speed in m/s (hover to see current wind gust speed)